owner,sensor,date,latitude,longitude,air_temperature,qcFlag 
COMPS,ioos:station:USF.COMPS:ARP:1,2011-05-01T00:00:00Z,28.4330,-82.6670,27.62,1111122 
COMPS,ioos:station:USF.COMPS:ARP:1,2011-05-01T00:06:00Z,28.4330,-82.6670,27.28,1111122 
COMPS,ioos:station:USF.COMPS:ARP:1,2011-05-01T00:12:00Z,28.4330,-82.6670,27.14,1111122 
COMPS,ioos:station:USF.COMPS:ARP:1,2011-05-01T00:18:00Z,28.4330,-82.6670,27.0,1111122 
COMPS,ioos:station:USF.COMPS:ARP:1,2011-05-01T00:24:00Z,28.4330,-82.6670,26.91,1111122 
COMPS,ioos:station:USF.COMPS:ARP:1,2011-05-01T00:30:00Z,28.4330,-82.6670,26.84,1111122 
COMPS,ioos:station:USF.COMPS:ARP:1,2011-05-01T00:36:00Z,28.4330,-82.6670,26.81,1111122 
COMPS,ioos:station:USF.COMPS:ARP:1,2011-05-01T00:42:00Z,28.4330,-82.6670,26.77,1111122 
COMPS,ioos:station:USF.COMPS:ARP:1,2011-05-01T00:48:00Z,28.4330,-82.6670,26.68,1111122 
COMPS,ioos:station:USF.COMPS:ARP:1,2011-05-01T00:54:00Z,28.4330,-82.6670,26.65,1111122 
COMPS,ioos:station:USF.COMPS:ARP:1,2011-05-01T01:00:00Z,28.4330,-82.6670,26.7,1111122 
COMPS,ioos:station:USF.COMPS:ARP:1,2011-05-01T01:06:00Z,28.4330,-82.6670,26.34,1111122 
COMPS,ioos:station:USF.COMPS:ARP:1,2011-05-01T01:12:00Z,28.4330,-82.6670,26.1,1111122 
COMPS,ioos:station:USF.COMPS:ARP:1,2011-05-01T01:18:00Z,28.4330,-82.6670,25.88,1111122 
COMPS,ioos:station:USF.COMPS:ARP:1,2011-05-01T01:24:00Z,28.4330,-82.6670,25.86,1111122 
COMPS,ioos:station:USF.COMPS:ARP:1,2011-05-01T01:30:00Z,28.4330,-82.6670,25.79,1111122 
COMPS,ioos:station:USF.COMPS:ARP:1,2011-05-01T01:36:00Z,28.4330,-82.6670,25.71,1111122 
COMPS,ioos:station:USF.COMPS:ARP:1,2011-05-01T01:42:00Z,28.4330,-82.6670,25.6,1111122 
COMPS,ioos:station:USF.COMPS:ARP:1,2011-05-01T01:48:00Z,28.4330,-82.6670,25.4,1111122 
COMPS,ioos:station:USF.COMPS:ARP:1,2011-05-01T01:54:00Z,28.4330,-82.6670,25.22,1111122 
COMPS,ioos:station:USF.COMPS:ARP:1,2011-05-01T02:00:00Z,28.4330,-82.6670,25.0,1111122 
COMPS,ioos:station:USF.COMPS:ARP:1,2011-05-01T02:06:00Z,28.4330,-82.6670,24.82,1111122 
COMPS,ioos:station:USF.COMPS:ARP:1,2011-05-01T02:12:00Z,28.4330,-82.6670,24.64,1111122 
COMPS,ioos:station:USF.COMPS:ARP:1,2011-05-01T02:18:00Z,28.4330,-82.6670,24.48,1111122 
COMPS,ioos:station:USF.COMPS:ARP:1,2011-05-01T02:24:00Z,28.4330,-82.6670,24.35,1111122 
COMPS,ioos:station:USF.COMPS:ARP:1,2011-05-01T02:30:00Z,28.4330,-82.6670,24.17,1111122 
COMPS,ioos:station:USF.COMPS:ARP:1,2011-05-01T02:36:00Z,28.4330,-82.6670,23.99,1111122 
COMPS,ioos:station:USF.COMPS:ARP:1,2011-05-01T02:42:00Z,28.4330,-82.6670,23.85,1111122 
COMPS,ioos:station:USF.COMPS:ARP:1,2011-05-01T02:48:00Z,28.4330,-82.6670,23.69,1111122 
COMPS,ioos:station:USF.COMPS:ARP:1,2011-05-01T02:54:00Z,28.4330,-82.6670,23.54,1111122 
COMPS,ioos:station:USF.COMPS:ARP:1,2011-05-01T03:00:00Z,28.4330,-82.6670,23.5,1111122 
COMPS,ioos:station:USF.COMPS:ARP:1,2011-05-01T03:06:00Z,28.4330,-82.6670,23.27,1111122 
COMPS,ioos:station:USF.COMPS:ARP:1,2011-05-01T03:12:00Z,28.4330,-82.6670,23.13,1111122 
COMPS,ioos:station:USF.COMPS:ARP:1,2011-05-01T03:18:00Z,28.4330,-82.6670,23.0,1111122 
COMPS,ioos:station:USF.COMPS:ARP:1,2011-05-01T03:24:00Z,28.4330,-82.6670,22.87,1111122 
COMPS,ioos:station:USF.COMPS:ARP:1,2011-05-01T03:30:00Z,28.4330,-82.6670,22.75,1111122 
COMPS,ioos:station:USF.COMPS:ARP:1,2011-05-01T03:36:00Z,28.4330,-82.6670,22.71,1111122 
COMPS,ioos:station:USF.COMPS:ARP:1,2011-05-01T03:42:00Z,28.4330,-82.6670,22.59,1111122 
COMPS,ioos:station:USF.COMPS:ARP:1,2011-05-01T03:48:00Z,28.4330,-82.6670,22.51,1111122 
COMPS,ioos:station:USF.COMPS:ARP:1,2011-05-01T03:54:00Z,28.4330,-82.6670,22.45,1111122 
COMPS,ioos:station:USF.COMPS:ARP:1,2011-05-01T04:00:00Z,28.4330,-82.6670,22.44,1111122 
COMPS,ioos:station:USF.COMPS:ARP:1,2011-05-01T04:06:00Z,28.4330,-82.6670,22.39,1111122 
COMPS,ioos:station:USF.COMPS:ARP:1,2011-05-01T04:12:00Z,28.4330,-82.6670,22.3,1111122 
COMPS,ioos:station:USF.COMPS:ARP:1,2011-05-01T04:18:00Z,28.4330,-82.6670,22.2,1111122 
COMPS,ioos:station:USF.COMPS:ARP:1,2011-05-01T04:24:00Z,28.4330,-82.6670,22.12,1111122 
COMPS,ioos:station:USF.COMPS:ARP:1,2011-05-01T04:30:00Z,28.4330,-82.6670,22.02,1111122 
COMPS,ioos:station:USF.COMPS:ARP:1,2011-05-01T04:36:00Z,28.4330,-82.6670,21.97,1111122 
COMPS,ioos:station:USF.COMPS:ARP:1,2011-05-01T04:42:00Z,28.4330,-82.6670,21.89,1111122 
COMPS,ioos:station:USF.COMPS:ARP:1,2011-05-01T04:48:00Z,28.4330,-82.6670,21.81,1111122 
COMPS,ioos:station:USF.COMPS:ARP:1,2011-05-01T04:54:00Z,28.4330,-82.6670,21.66,1111122 
COMPS,ioos:station:USF.COMPS:ARP:1,2011-05-01T05:00:00Z,28.4330,-82.6670,21.7,1111122 
COMPS,ioos:station:USF.COMPS:ARP:1,2011-05-01T05:06:00Z,28.4330,-82.6670,21.27,1111122 
COMPS,ioos:station:USF.COMPS:ARP:1,2011-05-01T05:12:00Z,28.4330,-82.6670,21.12,1111122 
COMPS,ioos:station:USF.COMPS:ARP:1,2011-05-01T05:18:00Z,28.4330,-82.6670,20.91,1111122 
COMPS,ioos:station:USF.COMPS:ARP:1,2011-05-01T05:24:00Z,28.4330,-82.6670,20.69,1111122 
COMPS,ioos:station:USF.COMPS:ARP:1,2011-05-01T05:30:00Z,28.4330,-82.6670,20.46,1111122 
COMPS,ioos:station:USF.COMPS:ARP:1,2011-05-01T05:36:00Z,28.4330,-82.6670,20.35,1111122 
COMPS,ioos:station:USF.COMPS:ARP:1,2011-05-01T05:42:00Z,28.4330,-82.6670,20.06,1111122 
COMPS,ioos:station:USF.COMPS:ARP:1,2011-05-01T05:48:00Z,28.4330,-82.6670,19.63,1111122 
COMPS,ioos:station:USF.COMPS:ARP:1,2011-05-01T05:54:00Z,28.4330,-82.6670,19.32,1111122 
COMPS,ioos:station:USF.COMPS:ARP:1,2011-05-01T06:00:00Z,28.4330,-82.6670,19.3,1111122 
COMPS,ioos:station:USF.COMPS:ARP:1,2011-05-01T06:06:00Z,28.4330,-82.6670,19.03,1111122 
COMPS,ioos:station:USF.COMPS:ARP:1,2011-05-01T06:12:00Z,28.4330,-82.6670,19.13,1111122 
COMPS,ioos:station:USF.COMPS:ARP:1,2011-05-01T06:18:00Z,28.4330,-82.6670,19.15,1111122 
COMPS,ioos:station:USF.COMPS:ARP:1,2011-05-01T06:24:00Z,28.4330,-82.6670,19.06,1111122 
COMPS,ioos:station:USF.COMPS:ARP:1,2011-05-01T06:30:00Z,28.4330,-82.6670,19.31,1111122 
COMPS,ioos:station:USF.COMPS:ARP:1,2011-05-01T06:36:00Z,28.4330,-82.6670,19.48,1111122 
COMPS,ioos:station:USF.COMPS:ARP:1,2011-05-01T06:42:00Z,28.4330,-82.6670,19.61,1111122 
COMPS,ioos:station:USF.COMPS:ARP:1,2011-05-01T06:48:00Z,28.4330,-82.6670,19.59,1111122 
COMPS,ioos:station:USF.COMPS:ARP:1,2011-05-01T06:54:00Z,28.4330,-82.6670,19.44,1111122 
COMPS,ioos:station:USF.COMPS:ARP:1,2011-05-01T07:00:00Z,28.4330,-82.6670,19.4,1111122 
COMPS,ioos:station:USF.COMPS:ARP:1,2011-05-01T07:06:00Z,28.4330,-82.6670,19.1,1111122 
COMPS,ioos:station:USF.COMPS:ARP:1,2011-05-01T07:12:00Z,28.4330,-82.6670,18.84,1111122 
COMPS,ioos:station:USF.COMPS:ARP:1,2011-05-01T07:18:00Z,28.4330,-82.6670,18.6,1111122 
COMPS,ioos:station:USF.COMPS:ARP:1,2011-05-01T07:24:00Z,28.4330,-82.6670,18.5,1111122 
COMPS,ioos:station:USF.COMPS:ARP:1,2011-05-01T07:30:00Z,28.4330,-82.6670,18.35,1111122 
COMPS,ioos:station:USF.COMPS:ARP:1,2011-05-01T07:36:00Z,28.4330,-82.6670,18.36,1111122 
COMPS,ioos:station:USF.COMPS:ARP:1,2011-05-01T07:42:00Z,28.4330,-82.6670,18.47,1111122 
COMPS,ioos:station:USF.COMPS:ARP:1,2011-05-01T07:48:00Z,28.4330,-82.6670,18.47,1111122 
COMPS,ioos:station:USF.COMPS:ARP:1,2011-05-01T07:54:00Z,28.4330,-82.6670,18.4,1111122 
COMPS,ioos:station:USF.COMPS:ARP:1,2011-05-01T08:00:00Z,28.4330,-82.6670,18.4,1111122 
COMPS,ioos:station:USF.COMPS:ARP:1,2011-05-01T08:06:00Z,28.4330,-82.6670,18.3,1111122 
COMPS,ioos:station:USF.COMPS:ARP:1,2011-05-01T08:12:00Z,28.4330,-82.6670,18.14,1111122 
COMPS,ioos:station:USF.COMPS:ARP:1,2011-05-01T08:18:00Z,28.4330,-82.6670,17.93,1111122 
COMPS,ioos:station:USF.COMPS:ARP:1,2011-05-01T08:24:00Z,28.4330,-82.6670,17.73,1111122 
COMPS,ioos:station:USF.COMPS:ARP:1,2011-05-01T08:30:00Z,28.4330,-82.6670,17.58,1111122 
COMPS,ioos:station:USF.COMPS:ARP:1,2011-05-01T08:36:00Z,28.4330,-82.6670,17.52,1111122 
COMPS,ioos:station:USF.COMPS:ARP:1,2011-05-01T08:42:00Z,28.4330,-82.6670,17.5,1111122 
COMPS,ioos:station:USF.COMPS:ARP:1,2011-05-01T08:48:00Z,28.4330,-82.6670,17.57,1111122 
COMPS,ioos:station:USF.COMPS:ARP:1,2011-05-01T08:54:00Z,28.4330,-82.6670,17.53,1111122 
COMPS,ioos:station:USF.COMPS:ARP:1,2011-05-01T09:00:00Z,28.4330,-82.6670,17.57,1111122 
COMPS,ioos:station:USF.COMPS:ARP:1,2011-05-01T09:06:00Z,28.4330,-82.6670,17.58,1111122 
COMPS,ioos:station:USF.COMPS:ARP:1,2011-05-01T09:12:00Z,28.4330,-82.6670,17.62,1111122 
COMPS,ioos:station:USF.COMPS:ARP:1,2011-05-01T09:18:00Z,28.4330,-82.6670,17.57,1111122 
COMPS,ioos:station:USF.COMPS:ARP:1,2011-05-01T09:24:00Z,28.4330,-82.6670,17.59,1111122 
COMPS,ioos:station:USF.COMPS:ARP:1,2011-05-01T09:30:00Z,28.4330,-82.6670,17.42,1111122 
COMPS,ioos:station:USF.COMPS:ARP:1,2011-05-01T09:36:00Z,28.4330,-82.6670,17.34,1111122 
COMPS,ioos:station:USF.COMPS:ARP:1,2011-05-01T09:42:00Z,28.4330,-82.6670,17.15,1111122 
COMPS,ioos:station:USF.COMPS:ARP:1,2011-05-01T09:48:00Z,28.4330,-82.6670,17.02,1111122 
COMPS,ioos:station:USF.COMPS:ARP:1,2011-05-01T09:54:00Z,28.4330,-82.6670,16.9,1111122 
COMPS,ioos:station:USF.COMPS:ARP:1,2011-05-01T10:00:00Z,28.4330,-82.6670,16.9,1111122 
COMPS,ioos:station:USF.COMPS:ARP:1,2011-05-01T10:06:00Z,28.4330,-82.6670,16.7,1111122 
COMPS,ioos:station:USF.COMPS:ARP:1,2011-05-01T10:12:00Z,28.4330,-82.6670,16.51,1111122 
COMPS,ioos:station:USF.COMPS:ARP:1,2011-05-01T10:18:00Z,28.4330,-82.6670,16.39,1111122 
COMPS,ioos:station:USF.COMPS:ARP:1,2011-05-01T10:24:00Z,28.4330,-82.6670,16.49,1111122 
COMPS,ioos:station:USF.COMPS:ARP:1,2011-05-01T10:30:00Z,28.4330,-82.6670,16.54,1111122 
COMPS,ioos:station:USF.COMPS:ARP:1,2011-05-01T10:36:00Z,28.4330,-82.6670,16.61,1111122 
COMPS,ioos:station:USF.COMPS:ARP:1,2011-05-01T10:42:00Z,28.4330,-82.6670,16.62,1111122 
COMPS,ioos:station:USF.COMPS:ARP:1,2011-05-01T10:48:00Z,28.4330,-82.6670,16.75,1111122 
COMPS,ioos:station:USF.COMPS:ARP:1,2011-05-01T10:54:00Z,28.4330,-82.6670,16.85,1111122 
COMPS,ioos:station:USF.COMPS:ARP:1,2011-05-01T11:00:00Z,28.4330,-82.6670,16.9,1111122 
COMPS,ioos:station:USF.COMPS:ARP:1,2011-05-01T11:06:00Z,28.4330,-82.6670,16.88,1111122 
COMPS,ioos:station:USF.COMPS:ARP:1,2011-05-01T11:12:00Z,28.4330,-82.6670,17.06,1111122 
COMPS,ioos:station:USF.COMPS:ARP:1,2011-05-01T11:18:00Z,28.4330,-82.6670,17.26,1111122 
COMPS,ioos:station:USF.COMPS:ARP:1,2011-05-01T11:24:00Z,28.4330,-82.6670,17.52,1111122 
COMPS,ioos:station:USF.COMPS:ARP:1,2011-05-01T11:30:00Z,28.4330,-82.6670,17.91,1111122 
COMPS,ioos:station:USF.COMPS:ARP:1,2011-05-01T11:36:00Z,28.4330,-82.6670,18.27,1111122 
COMPS,ioos:station:USF.COMPS:ARP:1,2011-05-01T11:42:00Z,28.4330,-82.6670,18.65,1111122 
COMPS,ioos:station:USF.COMPS:ARP:1,2011-05-01T11:48:00Z,28.4330,-82.6670,18.99,1111122 
COMPS,ioos:station:USF.COMPS:ARP:1,2011-05-01T11:54:00Z,28.4330,-82.6670,19.4,1111122 
COMPS,ioos:station:USF.COMPS:ARP:1,2011-05-01T12:00:00Z,28.4330,-82.6670,19.7,1111122 
COMPS,ioos:station:USF.COMPS:ARP:1,2011-05-01T12:06:00Z,28.4330,-82.6670,19.97,1111122 
COMPS,ioos:station:USF.COMPS:ARP:1,2011-05-01T12:12:00Z,28.4330,-82.6670,20.15,1111122 
COMPS,ioos:station:USF.COMPS:ARP:1,2011-05-01T12:18:00Z,28.4330,-82.6670,20.27,1111122 
COMPS,ioos:station:USF.COMPS:ARP:1,2011-05-01T12:24:00Z,28.4330,-82.6670,20.53,1111122 
COMPS,ioos:station:USF.COMPS:ARP:1,2011-05-01T12:30:00Z,28.4330,-82.6670,20.79,1111122 
COMPS,ioos:station:USF.COMPS:ARP:1,2011-05-01T12:36:00Z,28.4330,-82.6670,20.85,1111122 
COMPS,ioos:station:USF.COMPS:ARP:1,2011-05-01T12:42:00Z,28.4330,-82.6670,21.04,1111122 
COMPS,ioos:station:USF.COMPS:ARP:1,2011-05-01T12:48:00Z,28.4330,-82.6670,21.34,1111122 
COMPS,ioos:station:USF.COMPS:ARP:1,2011-05-01T12:54:00Z,28.4330,-82.6670,21.68,1111122 
COMPS,ioos:station:USF.COMPS:ARP:1,2011-05-01T13:00:00Z,28.4330,-82.6670,21.7,1111122 
COMPS,ioos:station:USF.COMPS:ARP:1,2011-05-01T13:06:00Z,28.4330,-82.6670,22.27,1111122 
COMPS,ioos:station:USF.COMPS:ARP:1,2011-05-01T13:12:00Z,28.4330,-82.6670,22.62,1111122 
COMPS,ioos:station:USF.COMPS:ARP:1,2011-05-01T13:18:00Z,28.4330,-82.6670,22.9,1111122 
COMPS,ioos:station:USF.COMPS:ARP:1,2011-05-01T13:24:00Z,28.4330,-82.6670,23.18,1111122 
COMPS,ioos:station:USF.COMPS:ARP:1,2011-05-01T13:30:00Z,28.4330,-82.6670,23.38,1111122 
COMPS,ioos:station:USF.COMPS:ARP:1,2011-05-01T13:36:00Z,28.4330,-82.6670,23.56,1111122 
COMPS,ioos:station:USF.COMPS:ARP:1,2011-05-01T13:42:00Z,28.4330,-82.6670,23.62,1111122 
COMPS,ioos:station:USF.COMPS:ARP:1,2011-05-01T13:48:00Z,28.4330,-82.6670,23.74,1111122 
COMPS,ioos:station:USF.COMPS:ARP:1,2011-05-01T13:54:00Z,28.4330,-82.6670,23.87,1111122 
COMPS,ioos:station:USF.COMPS:ARP:1,2011-05-01T14:00:00Z,28.4330,-82.6670,23.9,1111122 
COMPS,ioos:station:USF.COMPS:ARP:1,2011-05-01T14:06:00Z,28.4330,-82.6670,24.19,1111122 
COMPS,ioos:station:USF.COMPS:ARP:1,2011-05-01T14:12:00Z,28.4330,-82.6670,24.38,1111122 
COMPS,ioos:station:USF.COMPS:ARP:1,2011-05-01T14:18:00Z,28.4330,-82.6670,24.54,1111122 
COMPS,ioos:station:USF.COMPS:ARP:1,2011-05-01T14:24:00Z,28.4330,-82.6670,24.7,1111122 
COMPS,ioos:station:USF.COMPS:ARP:1,2011-05-01T14:30:00Z,28.4330,-82.6670,24.96,1111122 
COMPS,ioos:station:USF.COMPS:ARP:1,2011-05-01T14:36:00Z,28.4330,-82.6670,25.3,1111122 
COMPS,ioos:station:USF.COMPS:ARP:1,2011-05-01T14:42:00Z,28.4330,-82.6670,24.99,1111122 
COMPS,ioos:station:USF.COMPS:ARP:1,2011-05-01T14:48:00Z,28.4330,-82.6670,25.32,1111122 
COMPS,ioos:station:USF.COMPS:ARP:1,2011-05-01T14:54:00Z,28.4330,-82.6670,25.52,1111122 
COMPS,ioos:station:USF.COMPS:ARP:1,2011-05-01T15:00:00Z,28.4330,-82.6670,25.63,1111122 
COMPS,ioos:station:USF.COMPS:ARP:1,2011-05-01T15:06:00Z,28.4330,-82.6670,25.93,1111122 
COMPS,ioos:station:USF.COMPS:ARP:1,2011-05-01T15:12:00Z,28.4330,-82.6670,26.03,1111122 
COMPS,ioos:station:USF.COMPS:ARP:1,2011-05-01T15:18:00Z,28.4330,-82.6670,26.17,1111122 
COMPS,ioos:station:USF.COMPS:ARP:1,2011-05-01T15:24:00Z,28.4330,-82.6670,26.13,1111122 
COMPS,ioos:station:USF.COMPS:ARP:1,2011-05-01T15:30:00Z,28.4330,-82.6670,26.14,1111122 
COMPS,ioos:station:USF.COMPS:ARP:1,2011-05-01T15:36:00Z,28.4330,-82.6670,26.36,1111122 
COMPS,ioos:station:USF.COMPS:ARP:1,2011-05-01T15:42:00Z,28.4330,-82.6670,26.42,1111122 
COMPS,ioos:station:USF.COMPS:ARP:1,2011-05-01T15:48:00Z,28.4330,-82.6670,26.38,1111122 
COMPS,ioos:station:USF.COMPS:ARP:1,2011-05-01T15:54:00Z,28.4330,-82.6670,26.57,1111122 
COMPS,ioos:station:USF.COMPS:ARP:1,2011-05-01T16:00:00Z,28.4330,-82.6670,26.6,1111122 
COMPS,ioos:station:USF.COMPS:ARP:1,2011-05-01T16:06:00Z,28.4330,-82.6670,26.92,1111122 
COMPS,ioos:station:USF.COMPS:ARP:1,2011-05-01T16:12:00Z,28.4330,-82.6670,27.09,1111122 
COMPS,ioos:station:USF.COMPS:ARP:1,2011-05-01T16:18:00Z,28.4330,-82.6670,27.33,1111122 
COMPS,ioos:station:USF.COMPS:ARP:1,2011-05-01T16:24:00Z,28.4330,-82.6670,27.51,1111122 
COMPS,ioos:station:USF.COMPS:ARP:1,2011-05-01T16:30:00Z,28.4330,-82.6670,27.36,1111122 
COMPS,ioos:station:USF.COMPS:ARP:1,2011-05-01T16:36:00Z,28.4330,-82.6670,27.61,1111122 
COMPS,ioos:station:USF.COMPS:ARP:1,2011-05-01T16:42:00Z,28.4330,-82.6670,27.61,1111122 
COMPS,ioos:station:USF.COMPS:ARP:1,2011-05-01T16:48:00Z,28.4330,-82.6670,27.84,1111122 
COMPS,ioos:station:USF.COMPS:ARP:1,2011-05-01T16:54:00Z,28.4330,-82.6670,27.88,1111122 
COMPS,ioos:station:USF.COMPS:ARP:1,2011-05-01T17:00:00Z,28.4330,-82.6670,27.9,1111122 
COMPS,ioos:station:USF.COMPS:ARP:1,2011-05-01T17:06:00Z,28.4330,-82.6670,28.54,1111122 
COMPS,ioos:station:USF.COMPS:ARP:1,2011-05-01T17:12:00Z,28.4330,-82.6670,28.47,1111122 
COMPS,ioos:station:USF.COMPS:ARP:1,2011-05-01T17:18:00Z,28.4330,-82.6670,28.65,1111122 
COMPS,ioos:station:USF.COMPS:ARP:1,2011-05-01T17:24:00Z,28.4330,-82.6670,28.84,1111122 
COMPS,ioos:station:USF.COMPS:ARP:1,2011-05-01T17:30:00Z,28.4330,-82.6670,29.07,1111122 
COMPS,ioos:station:USF.COMPS:ARP:1,2011-05-01T17:36:00Z,28.4330,-82.6670,28.95,1111122 
COMPS,ioos:station:USF.COMPS:ARP:1,2011-05-01T17:42:00Z,28.4330,-82.6670,29.17,1111122 
COMPS,ioos:station:USF.COMPS:ARP:1,2011-05-01T17:48:00Z,28.4330,-82.6670,29.12,1111122 
COMPS,ioos:station:USF.COMPS:ARP:1,2011-05-01T17:54:00Z,28.4330,-82.6670,29.13,1111122 
COMPS,ioos:station:USF.COMPS:ARP:1,2011-05-01T18:00:00Z,28.4330,-82.6670,29.1,1111122 
COMPS,ioos:station:USF.COMPS:ARP:1,2011-05-01T18:06:00Z,28.4330,-82.6670,29.37,1111122 
COMPS,ioos:station:USF.COMPS:ARP:1,2011-05-01T18:12:00Z,28.4330,-82.6670,29.29,1111122 
COMPS,ioos:station:USF.COMPS:ARP:1,2011-05-01T18:18:00Z,28.4330,-82.6670,29.33,1111122 
COMPS,ioos:station:USF.COMPS:ARP:1,2011-05-01T18:24:00Z,28.4330,-82.6670,29.57,1111122 
COMPS,ioos:station:USF.COMPS:ARP:1,2011-05-01T18:30:00Z,28.4330,-82.6670,29.48,1111122 
COMPS,ioos:station:USF.COMPS:ARP:1,2011-05-01T18:36:00Z,28.4330,-82.6670,29.68,1111122 
COMPS,ioos:station:USF.COMPS:ARP:1,2011-05-01T18:42:00Z,28.4330,-82.6670,29.78,1111122 
COMPS,ioos:station:USF.COMPS:ARP:1,2011-05-01T18:48:00Z,28.4330,-82.6670,29.7,1111122 
COMPS,ioos:station:USF.COMPS:ARP:1,2011-05-01T18:54:00Z,28.4330,-82.6670,29.98,1111122 
COMPS,ioos:station:USF.COMPS:ARP:1,2011-05-01T19:00:00Z,28.4330,-82.6670,30.09,1111122 
COMPS,ioos:station:USF.COMPS:ARP:1,2011-05-01T19:06:00Z,28.4330,-82.6670,30.15,1111122 
COMPS,ioos:station:USF.COMPS:ARP:1,2011-05-01T19:12:00Z,28.4330,-82.6670,30.19,1111122 
COMPS,ioos:station:USF.COMPS:ARP:1,2011-05-01T19:18:00Z,28.4330,-82.6670,30.15,1111122 
COMPS,ioos:station:USF.COMPS:ARP:1,2011-05-01T19:24:00Z,28.4330,-82.6670,30.13,1111122 
COMPS,ioos:station:USF.COMPS:ARP:1,2011-05-01T19:30:00Z,28.4330,-82.6670,30.3,1111122 
COMPS,ioos:station:USF.COMPS:ARP:1,2011-05-01T19:36:00Z,28.4330,-82.6670,30.36,1111122 
COMPS,ioos:station:USF.COMPS:ARP:1,2011-05-01T19:42:00Z,28.4330,-82.6670,30.38,1111122 
COMPS,ioos:station:USF.COMPS:ARP:1,2011-05-01T19:48:00Z,28.4330,-82.6670,28.63,1111122 
COMPS,ioos:station:USF.COMPS:ARP:1,2011-05-01T19:54:00Z,28.4330,-82.6670,29.31,1111122 
COMPS,ioos:station:USF.COMPS:ARP:1,2011-05-01T20:00:00Z,28.4330,-82.6670,29.3,1111122 
COMPS,ioos:station:USF.COMPS:ARP:1,2011-05-01T20:06:00Z,28.4330,-82.6670,28.6,1111122 
COMPS,ioos:station:USF.COMPS:ARP:1,2011-05-01T20:12:00Z,28.4330,-82.6670,28.71,1111122 
COMPS,ioos:station:USF.COMPS:ARP:1,2011-05-01T20:18:00Z,28.4330,-82.6670,28.82,1111122 
COMPS,ioos:station:USF.COMPS:ARP:1,2011-05-01T20:24:00Z,28.4330,-82.6670,29.45,1111122 
COMPS,ioos:station:USF.COMPS:ARP:1,2011-05-01T20:30:00Z,28.4330,-82.6670,29.63,1111122 
COMPS,ioos:station:USF.COMPS:ARP:1,2011-05-01T20:36:00Z,28.4330,-82.6670,29.17,1111122 
COMPS,ioos:station:USF.COMPS:ARP:1,2011-05-01T20:42:00Z,28.4330,-82.6670,28.95,1111122 
COMPS,ioos:station:USF.COMPS:ARP:1,2011-05-01T20:48:00Z,28.4330,-82.6670,29.13,1111122 
COMPS,ioos:station:USF.COMPS:ARP:1,2011-05-01T20:54:00Z,28.4330,-82.6670,29.1,1111122 
COMPS,ioos:station:USF.COMPS:ARP:1,2011-05-01T21:00:00Z,28.4330,-82.6670,29.1,1111122 
COMPS,ioos:station:USF.COMPS:ARP:1,2011-05-01T21:06:00Z,28.4330,-82.6670,28.29,1111122 
COMPS,ioos:station:USF.COMPS:ARP:1,2011-05-01T21:12:00Z,28.4330,-82.6670,28.05,1111122 
COMPS,ioos:station:USF.COMPS:ARP:1,2011-05-01T21:18:00Z,28.4330,-82.6670,27.39,1111122 
COMPS,ioos:station:USF.COMPS:ARP:1,2011-05-01T21:24:00Z,28.4330,-82.6670,27.6,1111122 
COMPS,ioos:station:USF.COMPS:ARP:1,2011-05-01T21:30:00Z,28.4330,-82.6670,27.72,1111122 
COMPS,ioos:station:USF.COMPS:ARP:1,2011-05-01T21:36:00Z,28.4330,-82.6670,27.96,1111122 
COMPS,ioos:station:USF.COMPS:ARP:1,2011-05-01T21:42:00Z,28.4330,-82.6670,27.56,1111122 
COMPS,ioos:station:USF.COMPS:ARP:1,2011-05-01T21:48:00Z,28.4330,-82.6670,27.26,1111122 
COMPS,ioos:station:USF.COMPS:ARP:1,2011-05-01T21:54:00Z,28.4330,-82.6670,27.3,1111122 
COMPS,ioos:station:USF.COMPS:ARP:1,2011-05-01T22:00:00Z,28.4330,-82.6670,27.3,1111122 
COMPS,ioos:station:USF.COMPS:ARP:1,2011-05-01T22:06:00Z,28.4330,-82.6670,27.72,1111122 
COMPS,ioos:station:USF.COMPS:ARP:1,2011-05-01T22:12:00Z,28.4330,-82.6670,27.73,1111122 
COMPS,ioos:station:USF.COMPS:ARP:1,2011-05-01T22:18:00Z,28.4330,-82.6670,27.65,1111122 
COMPS,ioos:station:USF.COMPS:ARP:1,2011-05-01T22:24:00Z,28.4330,-82.6670,27.62,1111122 
COMPS,ioos:station:USF.COMPS:ARP:1,2011-05-01T22:30:00Z,28.4330,-82.6670,27.73,1111122 
COMPS,ioos:station:USF.COMPS:ARP:1,2011-05-01T22:36:00Z,28.4330,-82.6670,27.81,1111122 
COMPS,ioos:station:USF.COMPS:ARP:1,2011-05-01T22:42:00Z,28.4330,-82.6670,27.8,1111122 
COMPS,ioos:station:USF.COMPS:ARP:1,2011-05-01T22:48:00Z,28.4330,-82.6670,27.87,1111122 
COMPS,ioos:station:USF.COMPS:ARP:1,2011-05-01T22:54:00Z,28.4330,-82.6670,27.51,1111122 
COMPS,ioos:station:USF.COMPS:ARP:1,2011-05-01T23:00:00Z,28.4330,-82.6670,27.5,1111122 
COMPS,ioos:station:USF.COMPS:ARP:1,2011-05-01T23:06:00Z,28.4330,-82.6670,27.3,1111122 
COMPS,ioos:station:USF.COMPS:ARP:1,2011-05-01T23:12:00Z,28.4330,-82.6670,27.33,1111122 
COMPS,ioos:station:USF.COMPS:ARP:1,2011-05-01T23:18:00Z,28.4330,-82.6670,27.46,1111122 
COMPS,ioos:station:USF.COMPS:ARP:1,2011-05-01T23:24:00Z,28.4330,-82.6670,27.38,1111122 
COMPS,ioos:station:USF.COMPS:ARP:1,2011-05-01T23:30:00Z,28.4330,-82.6670,27.2,1111122 
COMPS,ioos:station:USF.COMPS:ARP:1,2011-05-01T23:36:00Z,28.4330,-82.6670,27.16,1111122 
COMPS,ioos:station:USF.COMPS:ARP:1,2011-05-01T23:42:00Z,28.4330,-82.6670,27.34,1111122 
COMPS,ioos:station:USF.COMPS:ARP:1,2011-05-01T23:48:00Z,28.4330,-82.6670,27.05,1111122 
COMPS,ioos:station:USF.COMPS:ARP:1,2011-05-01T23:54:00Z,28.4330,-82.6670,26.91,1111122 
COMPS,ioos:station:USF.COMPS:ARP:1,2011-05-02T00:00:00Z,28.4330,-82.6670,26.9,1111122 
COMPS,ioos:station:USF.COMPS:ARP:1,2011-05-02T00:06:00Z,28.4330,-82.6670,26.62,1111122 
COMPS,ioos:station:USF.COMPS:ARP:1,2011-05-02T00:12:00Z,28.4330,-82.6670,26.54,1111122 
COMPS,ioos:station:USF.COMPS:ARP:1,2011-05-02T00:18:00Z,28.4330,-82.6670,26.31,1111122 
COMPS,ioos:station:USF.COMPS:ARP:1,2011-05-02T00:24:00Z,28.4330,-82.6670,26.56,1111122 
COMPS,ioos:station:USF.COMPS:ARP:1,2011-05-02T00:30:00Z,28.4330,-82.6670,26.62,1111122 
COMPS,ioos:station:USF.COMPS:ARP:1,2011-05-02T00:36:00Z,28.4330,-82.6670,26.6,1111122 
COMPS,ioos:station:USF.COMPS:ARP:1,2011-05-02T00:42:00Z,28.4330,-82.6670,27.17,1111122 
COMPS,ioos:station:USF.COMPS:ARP:1,2011-05-02T00:48:00Z,28.4330,-82.6670,27.41,1111122 
COMPS,ioos:station:USF.COMPS:ARP:1,2011-05-02T00:54:00Z,28.4330,-82.6670,27.36,1111122 
COMPS,ioos:station:USF.COMPS:ARP:1,2011-05-02T01:00:00Z,28.4330,-82.6670,27.4,1111122 
COMPS,ioos:station:USF.COMPS:ARP:1,2011-05-02T01:06:00Z,28.4330,-82.6670,27.14,1111122 
COMPS,ioos:station:USF.COMPS:ARP:1,2011-05-02T01:12:00Z,28.4330,-82.6670,26.96,1111122 
COMPS,ioos:station:USF.COMPS:ARP:1,2011-05-02T01:18:00Z,28.4330,-82.6670,26.8,1111122 
COMPS,ioos:station:USF.COMPS:ARP:1,2011-05-02T01:24:00Z,28.4330,-82.6670,26.63,1111122 
COMPS,ioos:station:USF.COMPS:ARP:1,2011-05-02T01:30:00Z,28.4330,-82.6670,26.51,1111122 
COMPS,ioos:station:USF.COMPS:ARP:1,2011-05-02T01:36:00Z,28.4330,-82.6670,26.36,1111122 
COMPS,ioos:station:USF.COMPS:ARP:1,2011-05-02T01:42:00Z,28.4330,-82.6670,26.25,1111122 
COMPS,ioos:station:USF.COMPS:ARP:1,2011-05-02T01:48:00Z,28.4330,-82.6670,26.11,1111122 
COMPS,ioos:station:USF.COMPS:ARP:1,2011-05-02T01:54:00Z,28.4330,-82.6670,25.91,1111122 
COMPS,ioos:station:USF.COMPS:ARP:1,2011-05-02T02:00:00Z,28.4330,-82.6670,25.9,1111122 
COMPS,ioos:station:USF.COMPS:ARP:1,2011-05-02T02:06:00Z,28.4330,-82.6670,25.6,1111122 
COMPS,ioos:station:USF.COMPS:ARP:1,2011-05-02T02:12:00Z,28.4330,-82.6670,25.56,1111122 
COMPS,ioos:station:USF.COMPS:ARP:1,2011-05-02T02:18:00Z,28.4330,-82.6670,25.39,1111122 
COMPS,ioos:station:USF.COMPS:ARP:1,2011-05-02T02:24:00Z,28.4330,-82.6670,25.25,1111122 
COMPS,ioos:station:USF.COMPS:ARP:1,2011-05-02T02:30:00Z,28.4330,-82.6670,25.06,1111122 
COMPS,ioos:station:USF.COMPS:ARP:1,2011-05-02T02:36:00Z,28.4330,-82.6670,24.9,1111122 
COMPS,ioos:station:USF.COMPS:ARP:1,2011-05-02T02:42:00Z,28.4330,-82.6670,24.76,1111122 
COMPS,ioos:station:USF.COMPS:ARP:1,2011-05-02T02:48:00Z,28.4330,-82.6670,24.63,1111122 
COMPS,ioos:station:USF.COMPS:ARP:1,2011-05-02T02:54:00Z,28.4330,-82.6670,24.48,1111122 
COMPS,ioos:station:USF.COMPS:ARP:1,2011-05-02T03:00:00Z,28.4330,-82.6670,24.35,1111122 
COMPS,ioos:station:USF.COMPS:ARP:1,2011-05-02T03:06:00Z,28.4330,-82.6670,24.18,1111122 